Location: Chervonnoye
(48.6000°N, 34.4000°E)
Time: 11:28:27
(UTC+00:00)

deb Kosmos-2237 - Pass Details

Date: 15 June 2021
Orbit: 850 x 1045 km, 71.0° (Epoch: 25 July)

Event Time Altitude Azimuth Distance (km) Brightness Sun altitude
Rises 21:00:37 0° 240° (WSW) 3,559 ? -17.4°
Reaches altitude 10° 21:03:21 10° 250° (WSW) 2,650 ? -17.5°
Maximum altitude 21:08:51 33° 314° (NW) 1,572 ? -17.6°
Drops below altitude 10° 21:14:39 10° 17° (NNE) 2,784 ? -17.8°
Sets 21:17:36 0° 27° (NNE) 3,763 ? -17.8°
